Hourly Data Report for October 20, 2018

MONTREAL INTL A
QUEBEC
Current Station Operator: NAVCAN

45°28'14.000" N
73°44'27.000" W
36.00 m
7025251
71627
YUL

Download Data

Hourly Data (October 2018)
Hourly Data Report for October 20, 2018
TIME
LST
Temp Definition
°C
Dew Point Definition
°C
Rel Hum Definition
%
Precip. Amount Definition
mm

Wind Dir Definition
10's deg

Wind Spd Definition
km/h
Visibility Definition
km
Stn Press Definition
kPa
Hmdx Definition


Wind Chill Definition


Weather Definition


00:00 12.7 5.3 60   20 15 24.1 99.64     LegendNANA
01:00 12.8 3.0 51   24 33 24.1 99.58     Cloudy
02:00 11.8 4.4 60   22 30 24.1 99.50     LegendNANA
03:00 11.4 3.6 59   22 35 24.1 99.36     Rain
04:00 11.3 3.5 59   21 38 24.1 99.25     Rain
05:00 11.4 3.8 59   23 37 24.1 99.20     LegendNANA
06:00 10.3 5.5 72   22 39 24.1 99.12     Rain
07:00 9.3 7.2 87   22 45 24.1 99.15     Mostly Cloudy
08:00 10.4 7.6 83   23 37 24.1 99.21     LegendNANA
09:00 11.1 5.1 66   23 46 24.1 99.23     LegendNANA
10:00 11.7 4.7 62   24 44 24.1 99.29     Mostly Cloudy
11:00 12.5 3.4 54   24 46 48.3 99.32     LegendNANA
12:00 13.6 3.3 49   23 46 48.3 99.35     LegendNANA
13:00 11.5 4.4 62   27 28 48.3 99.42     Mainly Clear
14:00 12.0 3.7 57   27 25 48.3 99.45     LegendNANA
15:00 11.5 2.2 52   28 36 48.3 99.50     LegendNANA
16:00 10.8 0.8 50   27 28 48.3 99.51     Mainly Clear
17:00 9.6 -2.4 43   27 25 48.3 99.63     LegendNANA
18:00 9.0 -2.9 43   28 24 24.1 99.71     LegendNANA
19:00 7.9 -2.5 48   32 18 24.1 99.74     Mainly Clear
20:00 7.1 -1.5 54   32 18 24.1 99.83     LegendNANA
21:00 5.8 -0.4 65   30 10 24.1 99.91     LegendNANA
22:00 4.9 -0.8 67   28 17 24.1 99.97     Mainly Clear
23:00 3.9 -1.4 68   29 17 24.1 100.08     LegendNANA

Notes on Data Quality.

Legend

  • E = Estimated
  • M = Missing
  • NA = Not Available*
  • [empty] = Indicates an unobserved value
Date modified: